GW7247 Weather Reports


Display with metric or nautical units.
time (UTC)temp
F
wind
direction
speed
MPH
gust
MPH
rain 1hr
in
rain 24hr
in
rain mn
in
humidity
%
barometer
mb
20260508020026 51 352 1.0 5.0 0.00 0.09 0.08 40 1006.8
20260508015510 51 359 2.0 7.0 0.00 0.09 0.08 39 1006.8
20260508015007 51 353 1.0 7.0 0.00 0.09 0.08 40 1006.8
20260508014512 52 288 0.0 5.0 0.00 0.09 0.08 39 1006.7
20260508014007 52 327 2.0 5.0 0.00 0.09 0.08 38 1006.6
20260508013508 52 21 2.0 7.0 0.00 0.09 0.08 38 1006.5
20260508013020 53 276 2.0 7.0 0.00 0.09 0.08 38 1006.6
20260508012510 53 11 1.0 3.0 0.00 0.09 0.08 38 1006.4
20260508012007 53 326 1.0 2.0 0.00 0.09 0.08 36 1006.2
20260508011525 53 5 1.0 5.0 0.00 0.10 0.08 36 1006.2
20260508011008 53 280 1.0 5.0 0.00 0.10 0.08 35 1006.1
20260508010510 53 264 2.0 5.0 0.00 0.11 0.08 36 1006.1
20260508010037 53 275 1.0 2.0 0.00 0.11 0.08 36 1006.0
20260508005509 53 271 0.0 4.0 0.00 0.11 0.08 37 1006.0
20260508005013 54 13 0.0 4.0 0.00 0.11 0.08 37 1005.8
20260508004528 54 359 1.0 3.0 0.00 0.11 0.08 36 1005.7
20260508004012 54 343 1.0 3.0 0.00 0.11 0.08 35 1005.6
20260508003510 54 2 0.0 2.0 0.00 0.11 0.08 36 1005.6
20260508003020 54 307 0.0 2.0 0.00 0.11 0.08 35 1005.5
20260508002508 55 354 0.0 3.0 0.00 0.11 0.08 35 1005.3
20260508002011 55 354 0.0 4.0 0.00 0.11 0.08 34 1005.2
20260508001529 55 276 1.0 4.0 0.00 0.11 0.08 33 1005.2
20260508001007 56 250 0.0 4.0 0.00 0.11 0.08 34 1005.3
20260508000508 56 291 1.0 2.0 0.00 0.11 0.08 33 1005.4
20260508000025 56 321 0.0 2.0 0.00 0.11 0.08 34 1005.2
20260507235514 56 324 0.0 2.0 0.00 0.11 0.08 33 1005.3
20260507235010 56 322 0.0 1.0 0.00 0.11 0.08 34 1005.1
20260507234534 56 337 0.0 2.0 0.00 0.11 0.08 34 1005.1
20260507234008 57 191 0.0 2.0 0.00 0.11 0.08 34 1005.1
20260507233508 57 88 0.0 3.0 0.00 0.11 0.08 35 1004.9
20260507233028 57 359 0.0 3.0 0.00 0.11 0.08 34 1004.9
20260507232511 57 240 0.0 1.0 0.00 0.11 0.08 34 1004.9
20260507232012 58 240 0.0 1.0 0.00 0.11 0.08 34 1004.8
20260507231518 58 224 0.0 4.0 0.00 0.11 0.08 35 1004.7
20260507231007 58 172 0.0 4.0 0.00 0.11 0.08 33 1004.7
20260507230506 58 315 1.0 4.0 0.00 0.11 0.08 32 1004.6
20260507230024 58 332 0.0 4.0 0.00 0.11 0.08 32 1004.6
20260507225510 58 248 0.0 4.0 0.00 0.11 0.08 31 1004.5
20260507225009 59 352 0.0 5.0 0.00 0.11 0.08 33 1004.5
20260507224538 59 40 0.0 7.0 0.00 0.11 0.08 31 1004.5
20260507224008 59 264 2.0 7.0 0.00 0.11 0.08 32 1004.4
20260507223509 59 256 3.0 7.0 0.00 0.11 0.08 30 1004.2
20260507223028 59 27 0.0 4.0 0.00 0.11 0.08 31 1004.2
20260507222511 60 9 1.0 5.0 0.00 0.11 0.08 32 1004.1
20260507222010 60 39 2.0 5.0 0.00 0.11 0.08 30 1004.0
20260507221536 60 301 1.0 5.0 0.00 0.11 0.08 31 1004.0
20260507221007 60 232 1.0 9.0 0.00 0.11 0.08 31 1004.0
20260507220514 60 242 1.0 9.0 0.00 0.11 0.08 33 1004.0
20260507220024 60 333 0.0 6.0 0.00 0.11 0.08 32 1004.1
20260507215510 60 248 0.0 6.0 0.00 0.11 0.08 31 1004.0
20260507215007 60 323 0.0 7.0 0.00 0.12 0.08 31 1003.9
20260507214527 60 238 1.0 7.0 0.00 0.12 0.08 29 1003.9
20260507214009 61 328 2.0 5.0 0.00 0.12 0.08 31 1004.0
20260507213509 61 19 1.0 3.0 0.00 0.13 0.08 30 1004.0
20260507213031 61 241 1.0 3.0 0.00 0.13 0.08 31 1003.9
20260507212510 61 127 0.0 4.0 0.00 0.14 0.08 30 1003.8
20260507212005 62 68 0.0 6.0 0.00 0.14 0.08 30 1003.9
20260507211512 62 199 1.0 7.0 0.00 0.15 0.08 31 1003.9
20260507211006 62 24 2.0 7.0 0.00 0.15 0.08 28 1003.9
20260507210512 62 3 0.0 7.0 0.00 0.16 0.08 30 1003.8
20260507210040 62 252 1.0 4.0 0.00 0.16 0.08 33 1003.8
20260507205514 61 297 0.0 5.0 0.00 0.17 0.08 30 1003.7
20260507205007 61 242 2.0 5.0 0.00 0.18 0.08 32 1003.8
20260507204522 62 41 1.0 6.0 0.00 0.19 0.08 30 1003.7
20260507204008 62 326 0.0 6.0 0.00 0.20 0.08 31 1003.6
20260507203509 62 226 1.0 9.0 0.00 0.20 0.08 30 1003.7
20260507203026 62 345 4.0 9.0 0.00 0.20 0.08 30 1003.6
20260507202512 62 335 4.0 8.0 0.00 0.21 0.08 29 1003.6
20260507202013 62 269 2.0 9.0 0.00 0.21 0.08 30 1003.6
20260507201534 63 267 3.0 9.0 0.00 0.21 0.08 30 1003.6
20260507201012 63 264 2.0 7.0 0.00 0.21 0.08 31 1003.8
20260507200507 63 13 2.0 7.0 0.00 0.21 0.08 30 1003.6
20260507200022 63 319 1.0 11.0 0.00 0.22 0.08 30 1003.6
20260507195506 63 305 3.0 11.0 0.00 0.22 0.08 31 1003.8
20260507195012 63 292 3.0 7.0 0.00 0.22 0.08 31 1003.8
20260507194520 64 246 1.0 8.0 0.00 0.23 0.08 31 1003.8
20260507194008 63 186 2.0 10.0 0.00 0.26 0.08 31 1003.6
20260507193517 63 349 3.0 10.0 0.00 0.27 0.08 33 1003.7
20260507193036 63 294 3.0 6.0 0.00 0.29 0.08 35 1003.6
20260507192510 63 304 3.0 6.0 0.00 0.29 0.08 31 1003.8
20260507192010 62 328 2.0 6.0 0.00 0.30 0.08 35 1003.8
20260507191529 62 300 1.0 9.0 0.00 0.30 0.08 33 1003.9
20260507191010 62 354 2.0 9.0 0.00 0.31 0.08 32 1004.0
20260507190509 63 6 3.0 9.0 0.00 0.31 0.08 29 1004.0
20260507190033 63 266 1.0 8.0 0.00 0.32 0.08 33 1003.9
20260507185507 63 309 2.0 8.0 0.00 0.32 0.08 33 1004.0
20260507185007 63 264 1.0 7.0 0.00 0.33 0.08 34 1004.1
20260507184516 63 31 3.0 7.0 0.00 0.33 0.08 32 1004.0
20260507184006 63 144 2.0 10.0 0.00 0.33 0.08 36 1004.1
20260507183510 63 203 5.0 10.0 0.00 0.33 0.08 34 1004.2
20260507183034 63 206 2.0 15.0 0.00 0.33 0.08 38 1004.1
20260507182511 63 244 2.0 16.0 0.00 0.33 0.08 43 1004.3
20260507182011 63 224 6.0 16.0 0.00 0.33 0.08 39 1004.2
20260507181524 63 209 6.0 12.0 0.00 0.33 0.08 36 1004.0
20260507181011 63 250 2.0 6.0 0.00 0.33 0.08 38 1004.1
20260507180506 63 148 2.0 6.0 0.00 0.33 0.08 39 1004.1
20260507180026 62 31 2.0 10.0 0.00 0.33 0.08 40 1004.4
20260507175508 62 283 1.0 10.0 0.00 0.33 0.08 43 1004.4
20260507175012 61 16 2.0 10.0 0.00 0.33 0.08 41 1004.4
20260507174529 61 274 1.0 9.0 0.00 0.33 0.08 45 1004.5
20260507174009 61 21 1.0 9.0 0.00 0.33 0.08 42 1004.4
20260507173509 61 207 1.0 7.0 0.00 0.33 0.08 44 1004.4
20260507173019 60 347 1.0 8.0 0.00 0.33 0.08 45 1004.6
20260507172509 61 231 1.0 15.0 0.00 0.33 0.08 44 1004.7
20260507172011 61 262 5.0 15.0 0.00 0.33 0.08 41 1004.6
20260507171521 62 272 3.0 12.0 0.00 0.33 0.08 43 1004.5
20260507171013 61 233 4.0 13.0 0.00 0.33 0.08 41 1004.6
20260507170508 62 242 5.0 13.0 0.00 0.33 0.08 41 1004.7
20260507170025 63 236 4.0 11.0 0.00 0.33 0.08 43 1004.6
20260507165507 63 260 3.0 9.0 0.00 0.33 0.08 42 1004.6
20260507165007 63 234 2.0 15.0 0.00 0.33 0.08 43 1004.8
20260507164524 62 344 4.0 15.0 0.00 0.33 0.08 46 1004.8
20260507164009 62 62 2.0 8.0 0.00 0.33 0.08 45 1004.7
20260507163512 61 22 2.0 10.0 0.00 0.33 0.08 48 1004.7
20260507163026 61 243 1.0 10.0 0.00 0.33 0.08 48 1004.8
20260507162508 62 245 3.0 9.0 0.00 0.33 0.08 46 1005.0
20260507162009 61 13 1.0 7.0 0.00 0.33 0.08 46 1004.8
20260507161520 60 209 3.0 7.0 0.00 0.33 0.08 47 1005.1
20260507161008 60 8 1.0 7.0 0.00 0.33 0.08 49 1005.1
20260507160509 59 252 2.0 7.0 0.00 0.33 0.08 48 1005.3
20260507160031 59 208 2.0 6.0 0.00 0.33 0.08 47 1005.4
20260507155512 60 204 2.0 6.0 0.00 0.33 0.08 45 1005.4
20260507155011 60 250 1.0 5.0 0.00 0.33 0.08 50 1005.4
20260507154526 60 259 2.0 6.0 0.00 0.33 0.08 50 1005.4
20260507154011 60 300 0.0 6.0 0.00 0.33 0.08 50 1005.4
20260507153508 60 253 2.0 5.0 0.00 0.33 0.08 49 1005.5
20260507153025 60 257 3.0 5.0 0.00 0.33 0.08 45 1005.6
20260507152511 61 248 1.0 7.0 0.00 0.33 0.08 47 1005.6
20260507152013 61 223 1.0 7.0 0.00 0.33 0.08 48 1005.5
20260507151527 61 208 4.0 10.0 0.00 0.33 0.08 41 1005.6
20260507151008 61 225 3.0 10.0 0.00 0.33 0.08 44 1005.6
20260507150508 60 221 5.0 10.0 0.00 0.33 0.08 45 1005.6
20260507150022 60 319 2.0 6.0 0.00 0.33 0.08 49 1005.6
20260507145511 60 269 1.0 4.0 0.00 0.33 0.08 52 1005.5
20260507145010 60 244 1.0 6.0 0.00 0.33 0.08 54 1005.5
20260507144540 59 326 2.0 6.0 0.00 0.33 0.08 50 1005.7
20260507144009 59 289 1.0 8.0 0.00 0.33 0.08 51 1005.6
20260507143507 59 212 4.0 8.0 0.00 0.33 0.08 52 1005.6
20260507143026 58 41 0.0 6.0 0.00 0.33 0.08 56 1005.6
20260507142509 57 219 1.0 7.0 0.00 0.33 0.08 56 1005.7
20260507142010 58 257 1.0 7.0 0.00 0.33 0.08 55 1005.8
20260507141528 59 266 1.0 6.0 0.00 0.33 0.08 62 1005.9
20260507141012 58 44 2.0 6.0 0.00 0.33 0.08 57 1006.0
20260507140513 58 182 1.0 5.0 0.00 0.33 0.08 55 1005.9
20260507140032 57 237 1.0 5.0 0.00 0.33 0.08 56 1006.1
20260507135507 57 311 1.0 5.0 0.00 0.33 0.08 59 1006.1
20260507135009 57 340 2.0 5.0 0.00 0.33 0.08 56 1006.1
20260507134523 57 307 0.0 4.0 0.00 0.33 0.08 59 1006.1
20260507134010 57 21 1.0 4.0 0.00 0.33 0.08 61 1006.2
20260507133509 57 18 1.0 4.0 0.00 0.33 0.08 61 1006.1
20260507133024 56 356 1.0 4.0 0.00 0.33 0.08 60 1006.2
20260507132508 56 282 0.0 3.0 0.00 0.33 0.08 62 1006.2
20260507132010 56 259 2.0 5.0 0.00 0.33 0.08 62 1006.3
20260507131529 56 4 2.0 5.0 0.00 0.33 0.08 60 1006.3
20260507131010 56 224 1.0 5.0 0.00 0.33 0.08 61 1006.2
20260507130511 56 212 1.0 5.0 0.00 0.33 0.08 63 1006.3
20260507130032 55 236 1.0 4.0 0.00 0.33 0.08 64 1006.2
20260507125513 55 171 1.0 4.0 0.00 0.33 0.08 64 1006.4
20260507125011 55 360 1.0 4.0 0.00 0.33 0.08 62 1006.4
20260507124520 55 212 0.0 1.0 0.00 0.33 0.08 66 1006.4
20260507124010 54 252 0.0 5.0 0.00 0.33 0.08 64 1006.4
20260507123512 54 331 0.0 5.0 0.00 0.33 0.08 69 1006.5
20260507123032 53 342 0.0 4.0 0.00 0.33 0.08 67 1006.5
20260507122507 53 311 2.0 4.0 0.00 0.33 0.08 65 1006.4
20260507122012 53 6 1.0 2.0 0.00 0.33 0.08 68 1006.5
20260507121524 53 31 1.0 3.0 0.00 0.33 0.08 72 1006.4
20260507121011 52 19 1.0 3.0 0.00 0.33 0.08 70 1006.3
20260507120510 52 346 2.0 3.0 0.00 0.33 0.08 72 1006.4
20260507120026 52 279 0.0 1.0 0.00 0.33 0.08 74 1006.4
20260507115511 51 108 0.0 1.0 0.00 0.33 0.08 79 1006.6
20260507115012 50 246 0.0 2.0 0.00 0.33 0.08 78 1006.6
20260507114528 49 270 0.0 2.0 0.00 0.33 0.08 80 1006.5
20260507114011 49 293 0.0 0.0 0.00 0.33 0.08 83 1006.4
20260507113509 48 293 0.0 1.0 0.00 0.33 0.08 85 1006.5
20260507113027 47 293 0.0 1.0 0.00 0.33 0.08 83 1006.5
20260507112511 48 280 0.0 2.0 0.00 0.33 0.08 85 1006.5
20260507112012 48 279 0.0 2.0 0.00 0.33 0.08 84 1006.6
20260507111523 48 150 0.0 1.0 0.00 0.33 0.08 84 1006.6
20260507111010 48 276 0.0 1.0 0.00 0.33 0.08 85 1006.7
20260507110510 47 326 0.0 1.0 0.00 0.33 0.08 85 1006.8
20260507110030 47 223 0.0 1.0 0.00 0.33 0.08 86 1006.9
20260507105509 47 248 0.0 1.0 0.00 0.33 0.08 85 1006.9
20260507105012 47 190 0.0 1.0 0.00 0.33 0.08 85 1006.4
20260507104528 47 190 0.0 1.0 0.00 0.33 0.08 85 1006.5
20260507104011 47 190 0.0 1.0 0.00 0.33 0.08 86 1007.0
20260507103511 47 190 0.0 1.0 0.00 0.33 0.08 87 1007.2
20260507103027 47 4 0.0 1.0 0.00 0.33 0.08 86 1006.6
20260507102508 46 5 0.0 1.0 0.00 0.33 0.08 87 1006.7
20260507102010 46 205 0.0 0.0 0.00 0.33 0.08 87 1006.8
20260507101526 46 185 0.0 0.0 0.00 0.33 0.08 88 1006.6
20260507101010 46 157 0.0 0.0 0.00 0.33 0.08 88 1006.5
20260507100513 46 157 0.0 0.0 0.00 0.33 0.08 87 1006.6
20260507100024 46 157 0.0 0.0 0.00 0.33 0.08 87 1006.6
20260507095506 46 158 0.0 0.0 0.00 0.33 0.08 87 1006.6
20260507095004 46 158 0.0 0.0 0.00 0.33 0.08 87 1006.5
20260507094510 47 158 0.0 0.0 0.00 0.33 0.08 87 1006.3
20260507094006 47 46 0.0 0.0 0.00 0.33 0.08 86 1006.2
20260507093506 47 46 0.0 1.0 0.00 0.33 0.08 86 1006.0
20260507093014 47 3 0.0 1.0 0.00 0.33 0.08 86 1006.4
20260507092512 47 298 0.0 2.0 0.00 0.33 0.08 84 1006.2
20260507092011 47 340 0.0 2.0 0.00 0.33 0.08 84 1005.7
20260507091520 47 276 0.0 2.0 0.00 0.33 0.08 84 1006.0
20260507091009 47 69 0.0 1.0 0.00 0.33 0.08 85 1005.9
20260507090509 47 271 0.0 3.0 0.00 0.33 0.08 84 1006.1
20260507090024 48 296 0.0 3.0 0.00 0.33 0.08 84 1006.3
20260507085507 48 285 0.0 3.0 0.00 0.33 0.08 84 1006.1
20260507085010 48 8 0.0 3.0 0.00 0.33 0.08 85 1006.1
20260507084528 48 23 0.0 4.0 0.00 0.33 0.08 85 1006.0
20260507084005 48 300 1.0 4.0 0.00 0.33 0.08 85 1006.4
20260507083507 48 309 0.0 2.0 0.00 0.33 0.08 85 1006.4
20260507083011 48 6 0.0 4.0 0.00 0.33 0.08 85 1006.4
20260507082507 48 300 1.0 4.0 0.00 0.33 0.08 85 1006.2
20260507082009 48 302 1.0 5.0 0.00 0.33 0.08 86 1005.9
20260507081529 49 298 0.0 7.0 0.00 0.33 0.08 86 1005.6
20260507081009 49 319 1.0 7.0 0.00 0.33 0.08 86 1005.8
20260507080511 49 274 2.0 4.0 0.00 0.33 0.08 87 1005.6
20260507080023 49 309 0.0 1.0 0.00 0.33 0.08 88 1006.0
20260507075509 49 261 0.0 1.0 0.00 0.33 0.08 89 1006.1
20260507075009 49 254 0.0 3.0 0.00 0.33 0.08 89 1005.8
20260507074525 49 233 0.0 3.0 0.00 0.33 0.08 90 1005.9
20260507074011 49 279 0.0 3.0 0.00 0.33 0.08 90 1005.6
20260507073509 49 277 0.0 2.0 0.00 0.33 0.08 91 1005.6
20260507073025 49 297 0.0 1.0 0.00 0.33 0.08 92 1005.7
20260507072507 49 4 0.0 1.0 0.00 0.33 0.08 92 1005.6
20260507072006 49 292 0.0 2.0 0.00 0.33 0.08 92 1005.6
20260507071515 49 292 0.0 2.0 0.00 0.33 0.08 92 1005.4
20260507071007 49 4 0.0 1.0 0.00 0.33 0.08 93 1005.2
20260507070512 49 4 0.0 1.0 0.00 0.33 0.08 93 1005.5
20260507070018 49 4 0.0 1.0 0.00 0.33 0.08 93 1005.4
20260507065514 49 326 0.0 0.0 0.00 0.33 0.08 93 1005.3
20260507065009 49 326 0.0 0.0 0.00 0.33 0.08 93 1005.4
20260507064522 49 326 0.0 0.0 0.00 0.33 0.08 93 1005.3
20260507064012 50 326 0.0 0.0 0.00 0.33 0.08 93 1005.2
20260507063511 49 326 0.0 0.0 0.00 0.33 0.08 93 1005.0
20260507063026 50 326 0.0 0.0 0.00 0.33 0.08 93 1004.9
20260507062508 50 326 0.0 0.0 0.00 0.33 0.08 93 1005.0
20260507062015 50 326 0.0 0.0 0.00 0.33 0.08 92 1005.1
20260507061529 50 326 0.0 0.0 0.00 0.33 0.08 92 1005.0
20260507061006 50 326 0.0 0.0 0.00 0.33 0.08 92 1004.7
20260507060507 50 326 0.0 1.0 0.01 0.33 0.08 92 1004.7
20260507060018 50 326 0.0 1.0 0.01 0.33 0.08 92 1004.8
20260507055503 50 345 0.0 1.0 0.01 0.33 0.08 92 1005.0
20260507055003 50 292 0.0 1.0 0.01 0.33 0.08 92 1004.9
20260507054504 51 251 0.0 1.0 0.01 0.33 0.08 91 1004.7
20260507054004 51 331 0.0 1.0 0.01 0.33 0.08 91 1004.6
20260507053502 51 329 0.0 4.0 0.01 0.33 0.08 90 1004.6
20260507053006 51 350 0.0 4.0 0.01 0.33 0.08 90 1004.9
20260507052503 51 261 2.0 4.0 0.01 0.33 0.08 89 1004.8
20260507052004 51 280 1.0 5.0 0.02 0.33 0.08 89 1004.9
20260507051508 51 354 1.0 6.0 0.05 0.33 0.08 89 1005.0
20260507051004 52 303 3.0 7.0 0.06 0.33 0.08 88 1004.7
20260507050506 52 286 4.0 7.0 0.06 0.32 0.07 88 1004.5
20260507050013 53 5 3.0 7.0 0.07 0.32 0.07 89 1004.8
20260507045510 53 255 3.0 7.0 0.07 0.32 0.07 90 1004.6
20260507045010 54 314 2.0 6.0 0.07 0.32 0.07 91 1004.6
20260507044519 54 318 3.0 5.0 0.07 0.32 0.07 92 1004.2
20260507044002 54 312 1.0 4.0 0.07 0.32 0.07 95 1004.1
20260507043502 54 12 2.0 4.0 0.07 0.32 0.07 95 1003.9
20260507043004 54 222 0.0 1.0 0.07 0.32 0.07 94 1003.9
20260507042502 54 222 0.0 4.0 0.07 0.32 0.07 94 1003.9
20260507042003 54 222 0.0 4.0 0.06 0.31 0.06 95 1003.8
20260507041515 54 212 2.0 4.0 0.03 0.28 0.03 95 1004.0
20260507041003 54 238 2.0 6.0 0.02 0.27 0.02 96 1004.0
20260507040506 53 222 2.0 6.0 0.02 0.26 0.01 95 1004.0
20260507040011 53 215 2.0 5.0 0.01 0.25 0.00 95 1004.2
20260507035506 53 242 3.0 5.0 0.01 0.25 0.25 95 1003.9
20260507035009 53 200 1.0 4.0 0.01 0.25 0.25 95 1003.8
20260507034516 53 200 1.0 4.0 0.01 0.25 0.25 95 1003.8
20260507034006 53 245 1.0 3.0 0.01 0.25 0.25 95 1003.8
20260507033507 53 210 1.0 3.0 0.01 0.25 0.25 95 1003.6
20260507033020 53 191 0.0 3.0 0.01 0.25 0.25 95 1003.6
20260507032504 53 222 1.0 3.0 0.01 0.25 0.25 95 1003.6
20260507032002 53 229 0.0 3.0 0.01 0.25 0.25 95 1003.6
20260507031504 53 191 1.0 4.0 0.01 0.25 0.25 95 1003.6
20260507031005 52 242 0.0 5.0 0.01 0.25 0.25 95 1003.6
20260507030502 52 247 1.0 5.0 0.00 0.24 0.24 95 1003.6
20260507030009 52 203 2.0 5.0 0.00 0.24 0.24 95 1003.7
20260507025508 52 215 1.0 3.0 0.00 0.24 0.24 95 1003.6
20260507025005 52 229 1.0 4.0 0.00 0.24 0.24 95 1003.6
20260507024510 52 167 0.0 6.0 0.00 0.24 0.24 95 1003.7
20260507024011 52 194 1.0 6.0 0.00 0.24 0.24 95 1003.6
20260507023507 52 173 0.0 2.0 0.00 0.24 0.24 95 1003.7
20260507023015 52 213 1.0 3.0 0.00 0.24 0.24 95 1003.9
20260507022509 52 193 0.0 3.0 0.00 0.24 0.24 95 1004.0
20260507022011 52 247 2.0 4.0 0.00 0.24 0.24 95 1004.0
20260507021521 52 190 1.0 4.0 0.01 0.24 0.24 95 1004.1
20260507021004 52 262 1.0 5.0 0.01 0.24 0.24 95 1004.1
20260507020503 52 195 1.0 5.0 0.02 0.24 0.24 95 1004.2